Regional Weather Roundup
Issued by NWS

Home | Current Version | Previous Version | Graphics & Text | Print | Product List | Glossary On
Versions: 1 2 3 4 5 6 7 8 9 10 11 12 13 14 15 16 17 18 19 20 21 22 23 24 25 26 27 28 29 30 31 32 33 34 35 36 37 38 39 40 41 42 43 44 45 46 47 48 49 50
000
ASUS45 KABQ 161901
RWRNM
NEW MEXICO REGIONAL WEATHER ROUNDUP
NATIONAL WEATHER SERVICE ALBUQUERQUE NM
1200 PM MST THU NOV 16 2017

NOTE: "FAIR" MEANS FEW OR NO CLOUDS BELOW 12,000 FEET AGL WITH NO
       SIGNIFICANT WEATHER OR OBSTRUCTIONS TO VISION.

      THIS PRODUCT IS RELEASED AS TWO VERSIONS.  ONE VERSION NEAR
      THE TOP OF THE HOUR CONTAINING PRELIMINARY DATA FROM ALBUQUERQUE
      AND OTHER STATIONS.  A FINAL VERSION WITH ADDITIONAL DATA IS
      ISSUED ABOUT 10 MINUTES AFTER THE HOUR.

NMZ501-503-504-510>518-162000-
NORTHWEST PLATEAU/NORTHCENTRAL MOUNTAINS

CITY           SKY/WX    TMP DP  RH WIND       PRES   REMARKS
FARMINGTON     FAIR      60  21  22 E8        30.12F
LOS ALAMOS     FAIR      52  20  28 E3        30.20F
SANTA FE       FAIR      60  22  23 SW9       30.15F
TAOS           FAIR      59  17  19 SW3       30.20F
ANGEL FIRE     FAIR      54  18  24 W20G28    30.21F

$$
NMZ402-403-502-505>509-162000-
WESTCENTRAL MOUNTAINS/SOUTHWEST MOUNTAINS

CITY           SKY/WX    TMP DP  RH WIND       PRES   REMARKS
GALLUP         FAIR      66  20  17 SW20G25   30.17F
GRANTS         FAIR      65  19  17 W5        30.18F
SILVER CITY    FAIR      73  24  15 S9        30.17F

$$
NMZ407-409-411-412-162000-
SOUTHERN DESERTS

CITY           SKY/WX    TMP DP  RH WIND       PRES   REMARKS
DEMING         FAIR      73  28  18 S7        30.13F
LAS CRUCES     FAIR      72  27  19 S6        30.14F
HOLLOMAN AFB   FAIR      74  29  19 S6        30.13F
ALAMOGORDO     FAIR      72  28  20 SW7       30.13F
T OR C         FAIR      71  23  16 S7        30.12F

$$
NMZ519>523-162000-
CENTRAL VALLEYS/CENTRAL HIGHLANDS

CITY           SKY/WX    TMP DP  RH WIND       PRES   REMARKS
ALBUQUERQUE    FAIR      61  19  19 CALM      30.15F
DOUBLE EAGLE   MOSUNNY   63  21  20 S3        30.17F
MORIARTY ARPT  FAIR      69  21  16 W15       30.16F
CLINES CORNERS FAIR      64  19  17 W29G41    30.14F
BELEN          FAIR      61  21  21 NE5       30.14F
SOCORRO        FAIR      64  21  19 CALM      30.13F

$$
NMZ524>526-539-540-162000-
SOUTHCENTRAL MOUNTAINS

CITY           SKY/WX    TMP DP  RH WIND       PRES   REMARKS
RUIDOSO        FAIR      68  23  18 N9        30.21F

$$
NMZ527>531-162000-
NORTHEAST HIGHLANDS/NORTHEAST PLAINS

CITY           SKY/WX    TMP DP  RH WIND       PRES   REMARKS
LAS VEGAS      FAIR      69  21  16 VRB6      30.06F
RATON          FAIR      61  24  24 S12       30.00F
CLAYTON        FAIR      75  19  12 SW16G24   29.90F

$$
NMZ532>537-162000-
EASTCENTRAL PLAINS

CITY           SKY/WX    TMP DP  RH WIND       PRES   REMARKS
SANTA ROSA     FAIR      74  24  15 W20G25    30.02F
TUCUMCARI      FAIR      72  33  24 W17       29.95F
CANNON AFB     FAIR      71  35  27 W20       30.02F
CLOVIS AIRPORT FAIR      72  34  24 W23G31    30.01F

$$
NMZ028-029-538-162000-
SOUTHEAST PLAINS

CITY           SKY/WX    TMP DP  RH WIND       PRES   REMARKS
ROSWELL        FAIR      65  47  52 S9        30.06F
ARTESIA        FAIR      61  54  77 S9        30.08F
CARLSBAD       FAIR      63  53  70 SE10      30.07F
HOBBS          MOSUNNY   57  50  77 S8        30.10F


$$




USA.gov is the U.S. government's official web portal to all federal, state and local government web resources and services.